COSMOS 2491 DEB, 57570

Orbit data source: Space-Track

COSMOS 2491 DEB, 57570 is space debris in LEO originally from a launch on Wed, 25 Dec 2013 UTC launched from the Plesetsk Missile And Space Complex (PKMTR). Debris objects in space refer to the collection of defunct objects orbiting the Earth. Examples of debris include non-operational satellites, rocket bodies, and fragments generated from explosions, collisions, or faulty payload assembly.

Loading next visibility...
Identifier
57570, 2013-076BH
Orbit
LEO
Country
Flag of CISCIS
Related business
Manufacturer
TsNIIKhM
Mission
Spacecraft
Bus & Motor
Unknown
Mass
Unknown
Launch date (UTC)
2013-12-25 (12 years ago)
Launch vehicle
Unknown
Launch site
Plesetsk Missile And Space Complex (PKMTR)
Object type
Payload
Rocket body
Debris
Shape & HBR
Unknown shape, 0.1 m
Radar Cross Section
Small (<0.1 m²)

Expand to show TLE details & history
Last TLE update: 3 days ago

TLE from 3 days ago
0 COSMOS 2491 DEB
1 57570U 13076BH  25283.80152383  .00001816  00000-0  11030-1 0  9993
2 57570  82.4575 308.9011 0146536  96.0548 265.7257 12.52619538110600
Epoch: 2025-10-10T19:14Z
TLE epoch observation values (Epoch: 2025-10-10T19:14:11.658Z)
Latitude
-0.00002°
Longitude
0.71038°
Altitude
1,466.496 km
Speed
7.125 km/s
True Right ascension
20h 35m 36s
True Declination
0° 00' 00"
Sunlit
Object was in daylight at epoch
Visualization orbit readout
Latitude
Unknown
Longitude
Unknown
Altitude
Unknown
Speed
Unknown
Apparent Right ascension
Unknown
Apparent Declination
Unknown
Sunlit
N/A
Visualization observer readout
Local Sidereal Time
19:03:39
Azimuth
Unknown
Elevation
Unknown
Doppler factor
Unknown
Orbital elements
Apogee altitude
1,565.619 km
Perigee altitude
1,336.172 km
Semi-major axis
7,829.032 km
Eccentricity
0.01465
Inclination
82.4575°
RAAN
308.9011°
Arg. of periapsis
96.0548°
True anomaly
264.05371°
Mean anomaly
265.7257°
Eccentric anomaly
264.88945°
Mean motion
3.13315 °/min
Orbital period
114.9 mins
BSTAR
0.01103
Loading maneuver chart data...
Computing Atmospheric mass density...
Loading historical data...
Loading historical data...
Loading historical data...
Loading historical data...
Loading historical data...
Loading historical data...
Loading historical data...

Documentation

Showing up to 5 results
|